Location: Vancouver
(49.2500°N, 123.1330°W)
Time: 20:22:36
(UTC-08:00)

BREEZE-M DEB (TANK) - Visible Passes

Search period start: 20 January 2017 00:00
Search period end: 30 January 2017 00:00
Orbit: 269 x 13303 km, 49.6° (Epoch: 20 January)

Date Brightness Start Highest point End Pass type
(mag) Time Alt. Az. Time Alt. Az. Time Alt. Az.
20 Jan 8.5 04:38:56 10° WNW 06:21:26 56° WSW 07:08:42 10° S visible
20 Jan 8.1 16:48:13 10° E 17:08:09 13° ENE 17:35:41 10° NE visible
20 Jan 7.9 20:37:45 10° SSW 21:14:24 66° ESE 23:06:50 10° ENE visible
21 Jan 8.6 01:04:18 10° W 02:36:36 88° SSW 03:54:02 10° SE visible
21 Jan 8.4 05:55:26 10° NW 07:25:00 41° W 08:10:07 10° SSW visible
21 Jan 7.9 17:34:47 10° SE 18:04:29 25° E 19:08:52 10° NE visible
21 Jan 8.1 21:42:58 10° SW 22:26:52 80° SE 00:23:17 10° E visible
22 Jan 8.7 02:15:36 10° WNW 03:59:21 79° SW 05:01:14 10° SE visible
22 Jan 8.5 07:15:01 10° NW 08:24:08 26° WNW 09:06:44 10° WSW visible
22 Jan 7.8 18:33:17 10° SSE 19:04:09 40° E 20:32:22 10° NE visible
22 Jan 8.3 22:49:42 10° WSW 23:46:52 88° SSE 01:37:04 10° E visible
23 Jan 8.5 03:28:33 10° WNW 05:13:22 65° WSW 06:06:25 10° SSE visible
23 Jan 7.8 19:35:26 10° S 20:07:42 56° ESE 21:53:03 10° ENE visible
23 Jan 8.5 23:57:59 10° W 01:14:42 90° N 02:48:06 10° ESE visible
24 Jan 8.4 04:43:08 10° WNW 06:20:24 50° WSW 07:09:24 10° S visible
24 Jan 8.0 16:39:40 10° E 17:04:10 17° ENE 17:46:30 10° NE visible
24 Jan 8.0 20:39:35 10° SSW 21:16:05 72° SE 23:11:36 10° ENE visible
25 Jan 8.7 01:07:51 10° W 02:42:28 85° SSW 03:56:40 10° SE visible
25 Jan 8.4 05:59:48 10° NW 07:22:06 35° W 08:09:07 10° SW visible
25 Jan 7.8 17:33:19 10° SE 18:01:49 30° E 19:14:19 10° NE visible
25 Jan 8.2 21:45:14 10° SW 22:30:37 84° SSE 00:27:34 10° E visible
26 Jan 8.6 02:19:16 10° WNW 04:01:58 74° SW 05:03:03 10° SSE visible
26 Jan 8.6 07:20:40 10° NW 08:19:48 22° WNW 09:01:52 10° WSW visible
26 Jan 7.7 18:33:37 10° S 19:02:51 46° ESE 20:37:02 10° NE visible
26 Jan 8.4 22:52:20 10° WSW 23:52:59 90° N 01:40:37 10° ESE visible
27 Jan 8.5 03:32:12 10° WNW 05:13:13 60° WSW 06:07:20 10° S visible
27 Jan 7.9 19:36:33 10° SSW 20:07:57 62° ESE 21:57:35 10° ENE visible
28 Jan 8.6 00:00:54 10° W 01:21:32 89° SSW 02:50:50 10° ESE visible
28 Jan 8.4 04:46:46 10° NW 06:18:05 44° W 07:09:04 10° SSW visible
28 Jan 7.9 16:35:14 10° ESE 17:00:30 21° ENE 17:53:25 10° NE visible
28 Jan 8.1 20:41:12 10° SW 21:18:05 77° SE 23:15:52 10° E visible
29 Jan 8.7 01:10:56 10° W 02:46:36 81° SW 03:58:34 10° SE visible
29 Jan 8.5 06:03:49 10° NW 07:18:10 30° W 08:06:31 10° SW visible
29 Jan 7.7 17:32:28 10° SSE 17:59:27 36° E 19:18:52 10° NE visible
